• en France
  • Liste des pays
  • À 7 jours
  • Température de l'eau
  • Carte satellitaire
  • Carte météo
  • Widgets météo
  • user-avatar
    Se connecter

    Météo par heure à Paryshka

    Ce jour, 23 Juillet, Lundi

    Heure Température Précipitation Vent Pression Humidité
    00:00 +17°C° 0 mm 5 m/s 746 mmHg 91%
    01:00 +18°C° 0 mm 4 m/s 746 mmHg 91%
    02:00 +18°C° 0 mm 4 m/s 746 mmHg 91%
    03:00 +18°C° 0 mm 4 m/s 746 mmHg 91%
    04:00 +18°C° 0 mm 4 m/s 746 mmHg 91%
    05:00 +17°C° 0 mm 5 m/s 746 mmHg 91%
    06:00 +16°C° 0 mm 5 m/s 746 mmHg 91%
    07:00 +17°C° 0,1 mm 5 m/s 746 mmHg 90%
    08:00 +17°C° 0,1 mm 5 m/s 746 mmHg 89%
    09:00 +17°C° 0,1 mm 5 m/s 747 mmHg 88%
    10:00 +19°C° 0,1 mm 5 m/s 747 mmHg 84%
    11:00 +21°C° 0,1 mm 5 m/s 747 mmHg 81%
    12:00 +22°C° 0,1 mm 5 m/s 747 mmHg 78%
    13:00 +22°C° 0 mm 5 m/s 747 mmHg 77%
    14:00 +23°C° 0 mm 5 m/s 747 mmHg 76%
    15:00 +23°C° 0 mm 5 m/s 746 mmHg 75%
    16:00 +23°C° 0,3 mm 5 m/s 746 mmHg 77%
    17:00 +23°C° 0,3 mm 5 m/s 746 mmHg 79%
    18:00 +23°C° 0,3 mm 5 m/s 746 mmHg 80%
    19:00 +22°C° 0,1 mm 5 m/s 746 mmHg 84%
    20:00 +21°C° 0,1 mm 4 m/s 747 mmHg 88%
    21:00 +20°C° 0,1 mm 4 m/s 747 mmHg 91%
    22:00 +20°C° 0,1 mm 4 m/s 747 mmHg 91%
    23:00 +19°C° 0,1 mm 5 m/s 747 mmHg 92%

    Demain, 24 Juillet, Mardi

    Heure Température Précipitation Vent Pression Humidité
    00:00 +19°C° 0,1 mm 5 m/s 747 mmHg 92%
    01:00 +17°C° 0 mm 5 m/s 747 mmHg 92%
    02:00 +18°C° 0 mm 4 m/s 747 mmHg 92%
    03:00 +17°C° 0 mm 4 m/s 747 mmHg 92%
    04:00 +18°C° 0,1 mm 4 m/s 747 mmHg 91%
    05:00 +18°C° 0,1 mm 4 m/s 748 mmHg 91%
    06:00 +18°C° 0,1 mm 4 m/s 748 mmHg 91%
    07:00 +20°C° 0,1 mm 4 m/s 748 mmHg 88%
    08:00 +21°C° 0,1 mm 4 m/s 748 mmHg 85%
    09:00 +22°C° 0,1 mm 4 m/s 748 mmHg 82%
    10:00 +25°C° 0 mm 4 m/s 749 mmHg 78%
    11:00 +26°C° 0 mm 4 m/s 749 mmHg 74%
    12:00 +27°C° 0 mm 4 m/s 749 mmHg 70%
    13:00 +28°C° 0,3 mm 4 m/s 749 mmHg 68%
    14:00 +28°C° 0,3 mm 4 m/s 749 mmHg 67%
    15:00 +29°C° 0,3 mm 4 m/s 749 mmHg 65%
    16:00 +28°C° 0,6 mm 4 m/s 749 mmHg 70%
    17:00 +27°C° 0,6 mm 4 m/s 749 mmHg 75%
    18:00 +26°C° 0,6 mm 3 m/s 750 mmHg 80%
    19:00 +25°C° 0,1 mm 3 m/s 750 mmHg 84%
    20:00 +24°C° 0,1 mm 3 m/s 750 mmHg 88%
    21:00 +22°C° 0,1 mm 3 m/s 750 mmHg 92%
    22:00 +21°C° 0 mm 3 m/s 750 mmHg 92%
    23:00 +21°C° 0 mm 2 m/s 750 mmHg 92%

    Après-demain, 25 Juillet, Mercredi

    Heure Température Précipitation Vent Pression Humidité
    00:00 +21°C° 0 mm 2 m/s 751 mmHg 91%
    01:00 +21°C° 0,2 mm 2 m/s 751 mmHg 90%
    02:00 +20°C° 0,2 mm 3 m/s 751 mmHg 89%
    03:00 +20°C° 0,2 mm 3 m/s 751 mmHg 88%
    04:00 +20°C° 0 mm 3 m/s 751 mmHg 87%
    05:00 +19°C° 0 mm 3 m/s 751 mmHg 85%
    06:00 +19°C° 0 mm 3 m/s 751 mmHg 84%
    07:00 +20°C° 0 mm 3 m/s 751 mmHg 80%
    08:00 +21°C° 0 mm 3 m/s 752 mmHg 76%
    09:00 +21°C° 0 mm 4 m/s 752 mmHg 72%
    10:00 +22°C° 0 mm 4 m/s 752 mmHg 68%
    11:00 +25°C° 0 mm 4 m/s 752 mmHg 63%
    12:00 +26°C° 0 mm 5 m/s 752 mmHg 59%
    13:00 +26°C° 0 mm 5 m/s 752 mmHg 57%
    14:00 +27°C° 0 mm 5 m/s 752 mmHg 56%
    15:00 +28°C° 0 mm 5 m/s 752 mmHg 54%
    16:00 +27°C° 0 mm 4 m/s 752 mmHg 58%
    17:00 +27°C° 0 mm 4 m/s 752 mmHg 62%
    18:00 +26°C° 0 mm 4 m/s 752 mmHg 66%
    19:00 +25°C° 0 mm 4 m/s 752 mmHg 67%
    20:00 +23°C° 0 mm 4 m/s 752 mmHg 69%
    21:00 +23°C° 0 mm 4 m/s 752 mmHg 70%
    22:00 +22°C° 0 mm 4 m/s 752 mmHg 70%
    23:00 +22°C° 0 mm 4 m/s 753 mmHg 69%

    26 Juillet, Jeudi

    Heure Température Précipitation Vent Pression Humidité
    00:00 +21°C° 0 mm 4 m/s 753 mmHg 69%
    01:00 +21°C° 0 mm 4 m/s 753 mmHg 69%
    02:00 +21°C° 0 mm 5 m/s 753 mmHg 69%
    03:00 +22°C° 0 mm 5 m/s 753 mmHg 69%
    04:00 +22°C° 0 mm 5 m/s 753 mmHg 70%
    05:00 +21°C° 0 mm 4 m/s 753 mmHg 71%
    06:00 +21°C° 0 mm 4 m/s 753 mmHg 71%
    07:00 +22°C° 0 mm 5 m/s 753 mmHg 70%
    08:00 +23°C° 0 mm 5 m/s 753 mmHg 68%
    09:00 +25°C° 0 mm 5 m/s 753 mmHg 66%
    10:00 +26°C° 0 mm 5 m/s 753 mmHg 64%
    11:00 +27°C° 0 mm 5 m/s 754 mmHg 61%
    12:00 +28°C° 0 mm 5 m/s 754 mmHg 58%
    13:00 +29°C° 0 mm 5 m/s 754 mmHg 57%
    14:00 +30°C° 0 mm 5 m/s 754 mmHg 56%
    15:00 +30°C° 0 mm 5 m/s 754 mmHg 54%
    16:00 +29°C° 0 mm 4 m/s 754 mmHg 58%
    17:00 +29°C° 0 mm 4 m/s 754 mmHg 62%
    18:00 +28°C° 0 mm 3 m/s 754 mmHg 66%
    19:00 +27°C° 0 mm 3 m/s 754 mmHg 67%
    20:00 +27°C° 0 mm 4 m/s 754 mmHg 68%
    21:00 +26°C° 0 mm 4 m/s 754 mmHg 69%
    22:00 +26°C° 0 mm 4 m/s 755 mmHg 69%
    23:00 +26°C° 0 mm 4 m/s 755 mmHg 69%

    27 Juillet, Vendredi

    Heure Température Précipitation Vent Pression Humidité
    00:00 +25°C° 0 mm 4 m/s 755 mmHg 68%
    01:00 +23°C° 0 mm 4 m/s 755 mmHg 70%
    02:00 +23°C° 0 mm 4 m/s 755 mmHg 71%
    03:00 +22°C° 0 mm 3 m/s 755 mmHg 72%
    04:00 +22°C° 0 mm 3 m/s 755 mmHg 74%
    05:00 +21°C° 0 mm 3 m/s 755 mmHg 76%
    06:00 +21°C° 0 mm 3 m/s 756 mmHg 78%
    07:00 +22°C° 0 mm 3 m/s 756 mmHg 75%
    08:00 +25°C° 0 mm 3 m/s 756 mmHg 71%
    09:00 +26°C° 0 mm 3 m/s 756 mmHg 68%
    10:00 +28°C° 0 mm 3 m/s 756 mmHg 62%
    11:00 +29°C° 0 mm 4 m/s 756 mmHg 56%
    12:00 +30°C° 0 mm 4 m/s 756 mmHg 50%
    13:00 +32°C° 0 mm 4 m/s 755 mmHg 48%
    14:00 +32°C° 0 mm 4 m/s 755 mmHg 47%
    15:00 +32°C° 0 mm 4 m/s 755 mmHg 45%
    16:00 +32°C° 0 mm 4 m/s 755 mmHg 50%
    17:00 +30°C° 0 mm 3 m/s 755 mmHg 54%
    18:00 +30°C° 0 mm 3 m/s 755 mmHg 58%
    19:00 +28°C° 0 mm 3 m/s 755 mmHg 62%
    20:00 +26°C° 0 mm 3 m/s 755 mmHg 67%
    21:00 +24°C° 0 mm 3 m/s 755 mmHg 71%
    22:00 +24°C° 0 mm 3 m/s 755 mmHg 72%
    23:00 +22°C° 0 mm 3 m/s 755 mmHg 72%

    28 Juillet, Samedi

    Heure Température Précipitation Vent Pression Humidité
    00:00 +22°C° 0 mm 3 m/s 755 mmHg 73%
    01:00 +21°C° 0 mm 3 m/s 755 mmHg 75%
    02:00 +21°C° 0 mm 3 m/s 755 mmHg 77%
    03:00 +20°C° 0 mm 3 m/s 755 mmHg 79%
    04:00 +20°C° 0 mm 3 m/s 755 mmHg 79%
    05:00 +20°C° 0 mm 3 m/s 755 mmHg 80%
    06:00 +20°C° 0 mm 3 m/s 756 mmHg 81%
    07:00 +22°C° 0 mm 3 m/s 756 mmHg 76%
    08:00 +25°C° 0 mm 3 m/s 755 mmHg 71%
    09:00 +27°C° 0 mm 3 m/s 755 mmHg 66%
    10:00 +28°C° 0 mm 3 m/s 755 mmHg 60%
    11:00 +29°C° 0 mm 4 m/s 755 mmHg 54%
    12:00 +32°C° 0 mm 4 m/s 755 mmHg 48%
    13:00 +32°C° 0 mm 4 m/s 755 mmHg 46%
    14:00 +33°C° 0 mm 3 m/s 755 mmHg 44%
    15:00 +33°C° 0 mm 3 m/s 755 mmHg 42%
    16:00 +33°C° 0 mm 3 m/s 754 mmHg 46%
    17:00 +31°C° 0 mm 3 m/s 754 mmHg 50%
    18:00 +30°C° 0 mm 3 m/s 754 mmHg 54%
    19:00 +29°C° 0 mm 3 m/s 754 mmHg 57%
    20:00 +27°C° 0 mm 3 m/s 755 mmHg 61%
    21:00 +25°C° 0 mm 3 m/s 755 mmHg 64%
    22:00 +25°C° 0 mm 3 m/s 755 mmHg 65%
    23:00 +24°C° 0 mm 3 m/s 755 mmHg 66%
    Voir plus